This is the latest recevied weather packets stored in our database for station/object N9BLE. If no packets are shown the sender has not sent any weather packets the latest 10 day(s).
| Time | Temp. | Humidity | Pressure | Rain* | Wind** | Luminosity | Snow |
|---|---|---|---|---|---|---|---|
| 1777603846 | 5° C | 92% | 1018.5 hPa | 0 mm | - | 0 W/m² | - |
| 1777603542 | 5° C | 92% | 1018.4 hPa | 0 mm | - | 0 W/m² | - |
| 1777603238 | 5° C | 92% | 1018.2 hPa | 0 mm | - | 0 W/m² | - |
| 1777602934 | 5° C | 91% | 1018.5 hPa | 0 mm | - | 0 W/m² | - |
| 1777602630 | 5° C | 91% | 1018.3 hPa | 0 mm | - | 0 W/m² | - |
| 1777602325 | 5° C | 91% | 1018.4 hPa | 0 mm | - | 0 W/m² | - |
| 1777602021 | 5° C | 93% | 1018.5 hPa | 0 mm | - | 0 W/m² | - |
| 1777601716 | 5° C | 95% | 1018.4 hPa | 0 mm | - | 0 W/m² | - |
| 1777601411 | 5.56° C | 95% | 1018.3 hPa | 0 mm | - | 0 W/m² | - |
| 1777601108 | 5.56° C | 95% | 1018.4 hPa | 0 mm | - | 0 W/m² | - |
| 1777600806 | 5.56° C | 95% | 1018 hPa | 0 mm | - | 0 W/m² | - |
| 1777600501 | 5.56° C | 95% | 1018 hPa | 0 mm | - | 0 W/m² | - |
| 1777600196 | 5.56° C | 95% | 1018.1 hPa | 0 mm | - | 0 W/m² | - |
| 1777599893 | 5.56° C | 94% | 1018 hPa | 0 mm | - | 0 W/m² | - |
| 1777599589 | 5.56° C | 94% | 1018 hPa | 1.78 mm | - | 0 W/m² | - |
| 1777599287 | 5.56° C | 94% | 1018 hPa | 1.78 mm | - | 0 W/m² | - |
| 1777598982 | 5.56° C | 94% | 1018.1 hPa | 0 mm | - | 0 W/m² | - |
| 1777598679 | 5.56° C | 95% | 1018 hPa | 0 mm | - | 0 W/m² | - |
| 1777598375 | 5.56° C | 95% | 1018 hPa | 1.27 mm | - | 0 W/m² | - |
| 1777598074 | 5.56° C | 95% | 1017.7 hPa | 3.05 mm | - | 0 W/m² | - |
| 1777597773 | 6.11° C | 95% | 1018 hPa | 3.05 mm | - | 0 W/m² | - |
| 1777597468 | 6.11° C | 94% | 1018 hPa | 1.27 mm | - | 0 W/m² | - |
| 1777597164 | 6.11° C | 94% | 1017.9 hPa | 0 mm | - | 0 W/m² | - |
| 1777596860 | 6.11° C | 94% | 1017.8 hPa | 0 mm | - | 0 W/m² | - |
| 1777596556 | 6.11° C | 95% | 1017.7 hPa | 0 mm | - | 0 W/m² | - |
* Rain latest hour (hover to see other rain measurements)
** Current wind speed in m/s (hover to see current wind gust speed)